TimeMDT,TemperatureF,Dew PointF,Humidity,Sea Level PressureIn,VisibilityMPH,Wind Direction,Wind SpeedMPH,Gust SpeedMPH,PrecipitationIn,Events,Conditions,WindDirDegrees,DateUTC
12:15 AM,38.7,15.6,39,30.16,10.0,SSE,9.2,-,N/A,,Clear,150,2013-10-20 06:15:00
12:35 AM,40.1,15.3,36,30.16,10.0,West,9.2,-,N/A,,Clear,270,2013-10-20 06:35:00
12:55 AM,36.5,17.1,45,30.16,10.0,SSW,5.8,-,N/A,,Clear,210,2013-10-20 06:55:00
1:15 AM,38.5,16.5,41,30.15,10.0,WSW,13.8,18.4,N/A,,Clear,250,2013-10-20 07:15:00
1:35 AM,37.9,17.2,43,30.14,10.0,WSW,10.4,-,N/A,,Clear,240,2013-10-20 07:35:00
1:55 AM,36.3,17.8,47,30.16,10.0,South,4.6,-,N/A,,Clear,180,2013-10-20 07:55:00
2:15 AM,32.9,18.5,55,30.15,10.0,SW,8.1,-,N/A,,Clear,230,2013-10-20 08:15:00
2:35 AM,29.7,19.2,65,30.15,10.0,Calm,Calm,-,N/A,,Clear,0,2013-10-20 08:35:00
2:55 AM,30.6,18.7,61,30.15,10.0,Calm,Calm,-,N/A,,Clear,0,2013-10-20 08:55:00
3:15 AM,33.1,18.0,54,30.15,10.0,WNW,5.8,-,N/A,,Clear,290,2013-10-20 09:15:00
3:35 AM,31.8,18.1,57,30.14,10.0,Calm,Calm,-,N/A,,Clear,0,2013-10-20 09:35:00
3:55 AM,31.3,18.5,59,30.13,10.0,Calm,Calm,-,N/A,,Clear,0,2013-10-20 09:55:00
4:15 AM,28.6,18.5,66,30.13,10.0,Calm,Calm,-,N/A,,Clear,0,2013-10-20 10:15:00
4:35 AM,31.5,18.3,58,30.12,10.0,Calm,Calm,-,N/A,,Clear,0,2013-10-20 10:35:00
4:55 AM,24.8,19.0,79,30.12,10.0,Calm,Calm,-,N/A,,Clear,0,2013-10-20 10:55:00
5:15 AM,26.8,18.5,71,30.12,10.0,Calm,Calm,-,N/A,,Clear,0,2013-10-20 11:15:00
5:35 AM,25.9,19.0,75,30.13,10.0,Calm,Calm,-,N/A,,Clear,0,2013-10-20 11:35:00
5:55 AM,24.4,19.4,81,30.13,10.0,Calm,Calm,-,N/A,,Clear,0,2013-10-20 11:55:00
6:15 AM,22.5,18.3,84,30.13,10.0,Calm,Calm,-,N/A,,Clear,0,2013-10-20 12:15:00
6:35 AM,20.3,16.3,85,30.13,10.0,Calm,Calm,-,N/A,,Clear,0,2013-10-20 12:35:00
6:55 AM,20.1,16.5,86,30.13,10.0,Calm,Calm,-,N/A,,Clear,0,2013-10-20 12:55:00
7:15 AM,18.9,16.2,89,30.13,10.0,Calm,Calm,-,N/A,,Clear,0,2013-10-20 13:15:00
7:35 AM,18.1,15.3,88,30.13,10.0,Calm,Calm,-,N/A,,Clear,0,2013-10-20 13:35:00
7:55 AM,19.2,16.9,91,30.13,10.0,Calm,Calm,-,N/A,,Clear,0,2013-10-20 13:55:00
8:15 AM,24.8,20.5,84,30.13,10.0,Calm,Calm,-,N/A,,Clear,0,2013-10-20 14:15:00
8:35 AM,28.2,21.4,76,30.14,10.0,Calm,Calm,-,N/A,,Clear,0,2013-10-20 14:35:00
8:55 AM,31.5,21.7,67,30.14,10.0,Calm,Calm,-,N/A,,Clear,0,2013-10-20 14:55:00
9:15 AM,33.1,23.2,67,30.14,10.0,Calm,Calm,-,N/A,,Clear,0,2013-10-20 15:15:00
9:35 AM,36.0,20.8,54,30.13,10.0,Calm,Calm,-,N/A,,Clear,0,2013-10-20 15:35:00
9:55 AM,37.8,21.6,52,30.12,10.0,Calm,Calm,-,N/A,,Clear,0,2013-10-20 15:55:00
10:15 AM,40.5,21.2,46,30.11,10.0,Calm,Calm,-,N/A,,Clear,0,2013-10-20 16:15:00
10:35 AM,43.7,22.5,43,30.11,10.0,Calm,Calm,-,N/A,,Clear,0,2013-10-20 16:35:00
10:55 AM,46.0,22.6,40,30.10,10.0,Calm,Calm,-,N/A,,Clear,0,2013-10-20 16:55:00
11:15 AM,50.9,18.0,27,30.10,10.0,WSW,8.1,-,N/A,,Clear,250,2013-10-20 17:15:00
11:35 AM,51.1,18.0,27,30.08,10.0,WSW,9.2,16.1,N/A,,Clear,250,2013-10-20 17:35:00
11:55 AM,52.3,16.5,24,30.08,10.0,SSW,10.4,17.3,N/A,,Clear,210,2013-10-20 17:55:00
12:15 PM,52.9,17.4,25,30.08,10.0,WSW,9.2,-,N/A,,Clear,240,2013-10-20 18:15:00
12:35 PM,53.4,17.6,24,30.07,10.0,West,6.9,18.4,N/A,,Clear,270,2013-10-20 18:35:00
12:55 PM,53.4,18.3,25,30.06,10.0,West,11.5,17.3,N/A,,Clear,280,2013-10-20 18:55:00
1:15 PM,52.9,16.3,24,30.06,10.0,WSW,12.7,18.4,N/A,,Clear,250,2013-10-20 19:15:00
1:35 PM,53.6,16.5,23,30.04,10.0,WSW,11.5,17.3,N/A,,Clear,250,2013-10-20 19:35:00
1:55 PM,53.8,16.0,23,30.03,10.0,West,10.4,-,N/A,,Clear,270,2013-10-20 19:55:00
2:15 PM,54.0,16.7,23,30.02,10.0,West,13.8,19.6,N/A,,Clear,270,2013-10-20 20:15:00
2:35 PM,53.8,19.2,26,30.03,10.0,West,16.1,21.9,N/A,,Clear,280,2013-10-20 20:35:00
2:55 PM,53.6,20.1,27,30.03,10.0,West,17.3,21.9,N/A,,Clear,260,2013-10-20 20:55:00
3:15 PM,54.0,18.9,25,30.03,10.0,West,13.8,19.6,N/A,,Clear,260,2013-10-20 21:15:00
3:35 PM,53.8,18.1,25,30.03,10.0,West,17.3,20.7,N/A,,Clear,270,2013-10-20 21:35:00
3:55 PM,53.4,17.8,25,30.04,10.0,West,15.0,24.2,N/A,,Clear,260,2013-10-20 21:55:00
4:15 PM,52.9,16.7,24,30.03,10.0,West,13.8,19.6,N/A,,Clear,260,2013-10-20 22:15:00
4:35 PM,52.9,16.9,24,30.04,10.0,West,12.7,20.7,N/A,,Clear,260,2013-10-20 22:35:00
4:55 PM,52.9,16.7,24,30.04,10.0,West,11.5,17.3,N/A,,Clear,260,2013-10-20 22:55:00
5:15 PM,52.2,16.0,24,30.04,10.0,SW,9.2,-,N/A,,Clear,230,2013-10-20 23:15:00
5:35 PM,51.3,16.0,25,30.04,10.0,WSW,15.0,-,N/A,,Clear,250,2013-10-20 23:35:00
5:55 PM,48.7,16.9,28,30.05,10.0,WSW,11.5,-,N/A,,Clear,240,2013-10-20 23:55:00
6:15 PM,47.7,15.4,28,30.06,10.0,SW,6.9,-,N/A,,Clear,230,2013-10-21 00:15:00
6:35 PM,47.8,14.9,27,30.06,10.0,WSW,8.1,-,N/A,,Clear,240,2013-10-21 00:35:00
6:55 PM,47.7,15.3,27,30.07,10.0,WSW,6.9,-,N/A,,Mostly Cloudy,240,2013-10-21 00:55:00
7:15 PM,46.2,17.6,32,30.08,10.0,SE,4.6,-,N/A,,Overcast,130,2013-10-21 01:15:00
7:35 PM,48.0,15.8,28,30.08,10.0,East,12.7,16.1,N/A,,Overcast,100,2013-10-21 01:35:00
7:55 PM,46.4,20.3,36,30.09,10.0,ESE,9.2,19.6,N/A,,Overcast,120,2013-10-21 01:55:00
8:15 PM,45.3,21.6,39,30.10,10.0,SE,11.5,20.7,N/A,,Overcast,140,2013-10-21 02:15:00
8:35 PM,43.7,22.6,43,30.11,10.0,ESE,11.5,23.0,N/A,,Overcast,110,2013-10-21 02:35:00
8:55 PM,42.4,23.5,47,30.12,10.0,Calm,Calm,-,N/A,,Overcast,0,2013-10-21 02:55:00
9:15 PM,41.9,24.4,50,30.13,10.0,ESE,5.8,-,N/A,,Overcast,120,2013-10-21 03:15:00
9:35 PM,41.5,24.6,51,30.13,10.0,Calm,Calm,-,N/A,,Overcast,0,2013-10-21 03:35:00
9:55 PM,41.2,25.7,54,30.15,10.0,East,3.5,-,N/A,,Overcast,80,2013-10-21 03:55:00
10:15 PM,41.0,26.4,56,30.15,10.0,Calm,Calm,-,N/A,,Overcast,0,2013-10-21 04:15:00
10:35 PM,39.6,28.0,63,30.15,10.0,East,3.5,-,N/A,,Overcast,90,2013-10-21 04:35:00
10:55 PM,40.1,27.7,61,30.15,10.0,Calm,Calm,-,N/A,,Overcast,0,2013-10-21 04:55:00
11:15 PM,39.6,28.0,63,30.15,10.0,Calm,Calm,-,N/A,,Overcast,0,2013-10-21 05:15:00
11:35 PM,38.3,28.9,69,30.15,10.0,Calm,Calm,-,N/A,,Overcast,0,2013-10-21 05:35:00
11:55 PM,38.5,28.4,67,30.15,10.0,ESE,3.5,-,N/A,,Overcast,120,2013-10-21 05:55:00